Online Auction of ATVs, Boats, Farm Equipment, Tools, and More

Lot #01-0108: Multiquip 170 Amp DC Welder 4000 Watt AC Generator

Bidding is closed.
High Bid:$481.00
NA
Bidding Ended: Thu, May 2  10:06:13 am PT
High Bidder: hobbs1
Bid Increment: $10.00
Starting Bid: $5.00
Item Location: Smartsville, CA 95977
Item has been viewed 547 times.

Multiquip 170 Amp DC Welder 4000 Watt AC Generator

  • Model: ACX-170S
  • DC Arc Welder
    • Rate Current 150 A
    • Rated Voltage 27.5V
  • AC Generator
    • 60 Hz
    • 4KW Output max
    • Rated Voltage: 1220V
  • Gas Engine:
    • Model: EY40DS
    • OUtput: 9 HP/ 3600 RPM
Bid Date Bid Amount Bidder
May 2, 2019 - 10:04:13 AM $481.00 ihobbs1
May 2, 2019 - 10:04:13 AM $471.00 iDoggystyle$$$
May 2, 2019 - 10:02:44 AM $455.00 ihobbs1
May 2, 2019 - 10:01:58 AM $445.00 iDoggystyle$$$
May 2, 2019 - 10:01:58 AM $444.00 ihobbs1
May 2, 2019 - 9:59:59 AM $265.00 iDoggystyle$$$
May 2, 2019 - 9:59:32 AM $255.00 ilowtech
May 2, 2019 - 9:59:32 AM $251.00 iLhewes
May 2, 2019 - 8:55:11 AM $215.00 ilowtech
May 2, 2019 - 8:55:11 AM $205.00 iDennis3983
May 2, 2019 - 8:54:29 AM $195.00 ilowtech
May 2, 2019 - 8:54:29 AM $185.00 iDennis3983
May 2, 2019 - 8:54:13 AM $175.00 ilowtech
May 2, 2019 - 8:54:13 AM $165.00 iDennis3983
May 1, 2019 - 4:22:27 PM $155.00 ilowtech
May 1, 2019 - 4:22:27 PM $145.00 iSterlinggomez
May 1, 2019 - 5:26:02 AM $135.00 ilowtech
May 1, 2019 - 12:31:26 AM $125.00 iLhewes
May 1, 2019 - 12:31:26 AM $123.00 ilowtech
May 1, 2019 - 12:31:15 AM $105.00 ilowtech
May 1, 2019 - 12:31:15 AM $100.00 iLhewes
Apr 30, 2019 - 9:32:41 PM $80.00 ilowtech
Apr 30, 2019 - 9:32:41 PM $75.00 iSterlinggomez
Apr 30, 2019 - 8:09:48 PM $35.00 ilowtech
Apr 30, 2019 - 8:09:48 PM $30.00 iTechnology
Apr 30, 2019 - 8:06:49 PM $25.00 ilowtech
Apr 30, 2019 - 8:06:49 PM $20.00 iTechnology
Apr 30, 2019 - 7:59:18 PM $15.00 ilowtech
Apr 30, 2019 - 7:59:18 PM $10.00 iTechnology
Apr 30, 2019 - 2:05:18 PM $5.00 ilowtech
Click on any picture to see a larger image.